{"data":{"norad_id":49454,"intl_designator":"2021-104AY","name":"STARLINK-3160","alt_names":[],"object_type":"PAYLOAD","status":"ACTIVE","operator":null,"country":"US","launch_date":"2021-11-13","launch_site_code":"AFETR","launch_vehicle":null,"mission":null,"orbit_class":"UNKNOWN","rcs_meters":null,"size_class":null,"mass_kg":null,"dimensions":null,"purposes":["comms"],"wikipedia_slug":null,"has_3d_model":false,"image_url":null,"decayed_at":null,"tle_current":{"epoch":"2026-09-20T00:56:53.498112Z","epoch_age_seconds":84797,"freshness":"FRESH","line1":"1 49454U 21104AY  26263.03950808  .00000240  00000+0  18256-4 0  9997","line2":"2 49454  53.1608  53.5271 0001239  78.2076 281.9066 15.34391211268298","mean_motion":15.34391211,"eccentricity":0.0001239,"inclination_deg":53.1608,"raan_deg":53.5271,"arg_perigee_deg":78.2076,"mean_anomaly_deg":281.9066,"bstar":1.8256e-5,"rev_number":26829,"period_min":93.84829564173,"perigee_km":461.88177974961,"apogee_km":463.57694643438,"semimajor_km":6840.866363092,"source":"CELESTRAK","updated_at":"2026-09-20T09:00:39.401295Z"}}}